Back to catalog

CZ-6A DEB

AliveSSO
NORAD 56628·DEBRIS·🇨🇳 China

Launched Nov 11, 2022 from Taiyuan Satellite Launch Center

Loading…

Next Passes (next 24 hours)

TLE

AgingSource: Space-Track

Epoch: Sep 10, 2026, 05:23 UTC

1 56628U 22151AFC 26253.22445932 -.00000015  00000-0  16525-4 0  9997
2 56628  98.8798 241.0301 0072717 131.8234 228.9174 14.05246958124391

Track CZ-6A DEB in real time with AllMySat

Download on the App Store